Theta_e
349 349 350 354 354 355 355 355 356 356 356 357 357 357 357 357 356 356 355 355 355 354 355 355 355 354 354 353 353 351 351 351 352 353 352 352 351 350 349 348 347 347 347 346 345 344 345 345 343 342 342 342 342 343 342 341 340 339 339 342 345 344 344 344 343 343 344 343 343 344 345 347 346 345 346 346 346 346 346 345 344 345 346 345 347
349 350 351 353 354 354 354 354 355 356 356 356 357 356 357 357 356 356 355 355 355 355 355 355 355 354 353 353 352 351 351 351 352 351 351 351 351 348 347 348 347 347 346 344 344 345 344 344 343 343 344 343 343 343 343 342 341 340 340 344 343 344 344 344 344 344 344 344 344 343 344 345 345 345 346 345 346 346 345 346 344 345 343 343 345
350 348 350 352 354 354 354 354 355 355 355 356 356 356 356 356 355 355 355 355 355 355 355 354 354 353 352 351 351 350 350 350 350 350 349 349 350 348 348 348 347 346 344 346 346 346 345 345 345 345 344 344 343 343 343 343 342 341 341 342 343 344 343 342 344 344 344 344 345 345 344 344 343 342 344 345 346 346 345 345 344 343 343 343 345
347 346 348 352 353 353 353 353 354 354 354 354 355 355 355 355 355 355 355 355 355 354 354 354 353 352 352 351 350 350 349 349 349 348 348 348 349 348 347 347 346 345 346 347 348 346 346 345 346 345 345 345 346 344 342 342 341 340 340 341 342 343 343 341 341 342 341 343 346 344 342 342 343 343 344 344 346 345 345 345 345 345 345 345 344
347 347 348 349 353 353 353 353 353 354 354 354 354 354 354 354 354 354 354 354 354 353 353 353 353 352 351 350 350 349 349 349 348 348 348 348 349 348 347 347 345 347 348 348 347 347 347 347 347 347 347 347 347 345 343 342 342 340 340 340 341 342 342 342 341 341 340 338 341 346 340 341 342 341 342 344 344 344 344 344 344 344 344 344 343
349 349 347 349 351 355 353 352 353 353 353 353 354 353 353 354 354 354 353 353 353 353 353 353 352 351 350 349 349 349 349 349 348 349 350 349 349 347 347 348 348 347 348 348 347 347 348 348 347 348 348 347 347 346 345 342 342 341 341 340 340 341 340 341 340 339 338 338 345 336 335 338 339 339 344 344 344 343 343 343 343 343 343 343 343
349 349 348 349 351 353 352 352 352 352 352 353 353 353 353 353 353 353 352 353 353 353 352 352 351 351 350 350 349 349 349 349 349 349 349 348 348 349 348 348 348 349 349 348 348 349 349 349 349 348 348 347 348 348 347 345 342 341 341 340 340 340 340 340 338 337 337 341 338 336 335 335 337 338 343 343 341 342 341 341 340 340 340 341 341
349 348 348 347 350 352 352 351 351 352 352 352 352 352 352 352 352 352 352 352 352 351 351 351 351 350 350 350 350 349 349 349 349 348 348 348 350 350 349 348 349 351 352 351 350 350 350 350 349 348 348 347 347 347 346 346 344 342 341 340 339 340 339 339 337 338 341 339 339 339 339 335 337 337 341 342 341 341 341 340 339 338 339 339 339
347 348 348 348 350 351 351 350 350 351 351 351 351 351 352 352 352 352 352 351 351 350 351 351 350 351 350 350 350 350 350 350 350 349 350 350 351 350 350 350 351 351 351 350 350 350 350 349 349 349 348 348 347 346 345 345 344 341 340 340 339 339 338 337 339 338 340 339 339 338 338 337 337 337 337 337 339 340 340 340 340 339 339 338 337
347 348 349 349 350 351 350 350 350 350 351 351 352 352 352 352 352 352 352 351 351 351 351 351 350 350 350 351 350 350 351 350 349 349 350 352 352 350 351 351 351 350 350 350 350 350 349 349 348 348 348 346 345 345 345 345 344 341 341 340 338 338 337 335 336 339 338 339 339 339 340 341 336 336 336 338 337 337 337 338 338 338 338 337 336
348 348 349 348 350 350 350 350 351 350 350 350 350 351 351 351 352 352 352 351 351 351 350 350 349 350 350 349 349 350 350 349 348 348 349 350 351 351 351 352 352 351 350 351 350 349 349 348 348 347 346 346 346 346 345 345 344 342 341 339 338 337 336 337 342 340 339 338 339 339 337 339 337 337 337 336 336 336 335 336 337 337 338 337 337
346 349 349 348 352 350 350 350 351 350 350 351 351 350 351 351 351 351 351 350 351 350 351 350 349 349 349 350 350 349 350 349 348 348 348 348 347 347 350 351 350 351 350 349 349 348 348 347 347 345 345 345 345 346 346 345 345 343 342 340 338 337 335 336 339 340 340 339 338 339 337 336 336 338 340 340 340 340 337 337 336 338 337 336 334
346 347 348 351 350 350 350 350 350 351 351 351 352 350 350 350 350 351 351 351 351 350 351 351 350 350 349 349 349 349 350 349 349 349 348 346 346 346 347 348 349 349 349 348 347 347 346 346 345 344 345 346 346 346 346 346 345 343 342 340 338 337 336 338 339 339 339 339 339 339 337 339 338 336 337 337 336 336 335 335 334 334 334 332 336
346 347 348 347 349 352 350 349 350 351 351 351 351 351 351 351 351 351 350 350 351 351 350 351 351 351 350 350 350 350 350 350 350 349 346 345 346 347 347 347 347 347 347 347 347 346 345 345 344 345 346 346 346 346 347 347 345 343 342 339 337 337 337 342 340 338 340 339 340 337 338 338 336 336 336 335 336 335 335 334 335 335 334 335 335
347 348 349 349 349 351 352 350 350 350 350 350 350 350 350 350 350 350 350 350 350 350 351 350 351 350 350 350 349 348 350 350 349 348 346 346 347 347 347 347 347 346 346 346 345 345 344 344 344 345 345 345 346 346 346 345 344 343 341 339 338 338 339 336 335 337 337 338 338 337 337 337 338 338 337 337 337 336 335 336 335 335 335 335 334
350 348 348 349 350 349 351 351 350 349 349 350 350 350 350 350 350 350 350 350 350 350 350 349 349 349 349 349 348 348 351 350 348 347 348 348 348 348 347 347 346 346 346 345 344 344 344 344 345 345 345 345 346 345 345 344 344 343 341 340 337 337 337 341 338 339 339 338 337 335 333 336 338 335 334 335 335 335 335 334 334 334 334 333 333
349 349 347 347 350 349 348 350 351 349 349 349 349 349 349 349 349 349 349 350 350 350 350 350 349 348 347 347 348 351 350 349 349 348 348 348 347 347 347 346 345 345 345 345 344 344 344 344 345 346 345 345 345 345 344 344 344 342 342 341 340 338 338 341 338 340 339 339 338 338 338 336 335 335 336 336 334 333 333 333 333 332 333 333 332
348 349 348 348 349 349 350 349 352 352 353 351 349 349 349 349 349 349 349 349 350 350 350 350 350 349 350 350 351 351 350 348 349 348 347 347 347 347 346 345 345 345 344 344 344 344 344 344 345 345 345 345 345 344 344 344 344 343 342 341 340 338 338 341 339 338 340 340 338 338 337 336 337 336 335 335 336 335 335 335 335 334 333 333 332
347 349 349 349 349 350 349 350 351 351 352 351 352 352 349 349 349 349 349 349 349 349 349 349 349 349 349 349 349 350 349 349 349 348 347 347 347 347 346 346 345 345 344 344 343 344 344 345 345 345 345 345 345 345 344 344 344 343 342 341 339 339 338 343 340 339 340 340 337 335 336 337 335 335 336 336 333 336 336 334 334 333 332 333 333
346 347 349 349 350 349 349 348 349 350 351 350 350 351 350 348 349 348 349 349 349 349 349 349 348 349 349 349 349 350 348 347 347 348 347 347 346 344 346 346 344 344 344 344 344 343 343 344 344 344 345 345 345 345 344 344 343 343 342 340 340 338 343 341 340 338 339 337 338 337 337 336 335 335 335 335 335 333 335 337 336 335 334 334 333
346 347 348 348 349 349 349 348 349 350 351 351 350 350 352 349 350 349 349 349 349 349 349 348 348 349 349 349 348 348 351 347 350 350 347 349 345 345 345 345 344 344 344 344 343 342 342 343 343 343 345 345 346 345 344 344 344 342 342 342 340 345 342 342 341 340 338 335 334 332 335 335 334 334 335 335 334 334 334 334 334 334 333 333 333
344 344 346 348 347 348 347 350 349 349 350 350 349 347 351 349 348 350 350 351 350 349 351 351 348 349 347 349 349 348 350 349 350 347 348 347 346 345 345 345 344 344 344 343 343 343 342 341 340 341 343 345 345 345 345 344 343 343 342 342 345 342 341 340 340 338 338 338 336 337 336 336 336 337 336 335 334 334 335 333 333 333 332 332 332
341 343 345 347 348 349 350 349 350 349 350 350 348 348 347 347 347 347 348 348 350 352 349 348 349 349 347 347 350 350 348 342 343 347 346 344 346 345 345 345 344 344 343 343 342 342 342 341 341 339 340 341 346 344 344 344 345 343 343 345 342 340 342 340 339 338 337 338 339 338 337 338 338 337 336 335 335 335 335 335 334 334 333 331 331
341 342 343 346 348 348 349 350 349 350 349 350 348 349 346 350 346 349 350 349 351 345 345 346 346 345 346 350 351 349 342 347 345 344 345 347 346 345 343 343 342 342 342 341 342 342 341 340 339 336 339 344 344 343 344 345 344 344 345 343 342 341 341 340 336 337 338 337 338 338 339 339 339 339 339 338 336 335 334 333 333 332 331 331 331
342 344 344 345 347 349 350 350 350 349 351 350 350 349 350 349 347 349 348 345 345 345 347 348 347 346 347 351 349 348 343 346 347 345 348 343 343 343 343 342 341 341 340 341 340 339 340 336 336 338 339 341 342 345 346 345 346 343 343 342 342 343 341 341 337 337 339 339 341 339 339 340 340 340 340 339 336 336 336 335 334 334 333 332 331
344 343 344 346 347 347 351 348 349 350 351 351 351 350 352 349 349 350 348 345 343 345 343 349 344 345 343 347 350 350 346 341 342 342 344 345 342 341 340 341 340 338 339 338 337 336 338 336 336 337 339 342 342 345 346 346 344 340 340 341 340 342 341 339 338 338 341 340 340 342 342 342 341 340 340 337 337 335 334 334 334 333 332 332 331
341 342 345 346 347 349 351 350 348 350 350 350 353 351 349 350 350 349 347 345 347 342 342 341 347 345 343 343 345 346 343 342 343 344 344 344 340 339 340 340 339 338 339 336 337 337 335 336 337 337 339 339 342 345 346 345 343 340 339 338 340 341 341 340 340 340 341 339 341 343 342 341 340 340 338 337 337 336 335 334 334 333 332 332 332
342 343 344 346 346 349 349 349 347 349 349 349 349 349 349 349 349 344 347 347 347 345 343 346 342 342 338 341 343 343 345 342 343 343 343 343 341 342 340 339 341 339 339 338 336 336 337 337 338 336 335 339 341 344 344 342 342 342 338 340 340 342 342 340 342 343 342 342 341 343 341 341 341 340 339 340 339 337 336 335 335 334 334 333 332
341 342 344 345 348 349 348 346 348 349 349 349 347 348 349 351 350 348 348 347 348 349 347 342 345 343 346 344 346 344 343 342 342 342 343 342 340 340 338 339 340 339 340 339 339 337 337 338 337 335 337 340 341 343 342 342 343 342 339 339 341 341 342 342 341 340 342 342 342 342 341 340 340 340 339 338 337 338 337 335 335 334 334 333 332
342 343 345 346 348 349 348 348 349 348 347 346 346 346 348 349 349 348 347 345 345 348 346 347 349 344 344 344 347 345 343 342 342 342 342 342 339 341 340 340 338 339 339 340 341 338 337 337 337 338 336 339 340 342 341 341 340 341 340 340 340 341 343 341 339 339 341 342 340 341 341 341 340 341 338 335 338 338 338 337 336 334 334 333 333
343 343 345 346 346 348 348 350 351 350 347 345 346 346 348 349 348 347 344 341 345 342 338 343 346 340 340 336 340 345 344 344 343 342 342 340 340 340 340 339 339 340 341 340 341 339 340 339 340 337 338 338 340 341 340 340 339 338 340 339 340 343 342 342 339 340 340 341 340 340 341 342 342 342 342 340 339 339 338 338 336 335 335 334 335
341 342 343 347 347 346 349 350 348 348 348 347 346 346 347 346 347 345 342 343 341 340 339 338 343 346 344 342 341 346 344 344 342 341 341 339 339 340 340 340 338 340 343 340 340 341 341 341 341 342 341 342 341 342 340 337 337 336 337 338 340 342 341 340 341 340 340 341 341 342 343 340 341 341 340 340 338 337 338 338 337 337 336 335 335
342 343 343 345 346 346 348 349 347 346 346 347 348 346 343 345 346 345 343 341 342 340 336 340 345 340 347 346 343 340 343 340 344 341 340 338 340 339 340 339 340 341 341 341 341 343 342 341 344 345 343 342 341 342 340 338 336 336 338 339 341 339 340 339 340 340 339 340 339 339 340 340 339 340 339 339 339 339 338 337 337 338 338 338 337
341 343 344 344 346 348 347 345 344 342 343 344 344 342 340 339 341 343 342 341 343 341 339 342 344 346 340 342 343 342 344 346 343 344 341 339 341 340 339 339 340 340 341 342 341 341 341 341 341 342 341 340 340 341 338 337 337 338 340 342 343 343 341 338 339 340 340 339 339 339 337 338 340 341 340 338 338 338 338 338 337 338 338 337 337
342 343 342 343 346 346 345 339 340 341 341 341 342 343 340 341 341 342 341 341 341 341 342 341 341 341 344 344 345 340 340 342 344 343 341 340 339 337 338 339 340 341 340 342 343 343 343 342 340 340 341 339 339 339 337 337 339 340 341 342 341 340 341 340 339 338 337 339 339 337 339 340 338 339 340 341 338 337 338 337 337 336 337 336 336
342 342 342 344 343 344 341 340 340 339 341 342 343 343 343 344 344 341 343 342 342 340 340 341 338 341 342 344 344 341 340 342 343 342 338 338 338 338 339 340 340 341 340 341 343 342 343 342 343 342 339 338 338 336 338 338 340 339 339 340 340 340 339 338 338 336 337 338 336 337 337 337 339 338 337 338 338 339 336 337 336 336 336 337 337
343 342 341 341 342 342 340 342 339 339 339 340 339 337 338 338 340 339 340 340 338 337 340 342 340 335 339 343 344 342 341 342 341 339 339 336 341 340 339 340 341 342 341 341 342 342 343 342 343 343 341 339 338 336 337 339 338 338 338 337 338 339 338 337 336 336 337 336 336 336 337 337 336 337 342 340 335 340 337 336 335 334 334 336 337
342 342 341 341 340 340 339 338 339 339 339 337 336 339 337 340 341 338 339 338 337 337 340 338 339 340 343 343 342 341 342 343 342 340 342 342 340 340 338 340 342 345 343 343 342 343 343 342 342 343 341 339 337 336 337 336 336 336 336 336 337 336 335 337 336 335 336 336 337 337 337 339 340 339 338 338 338 340 338 336 333 331 331 332 334
342 342 341 341 340 339 338 336 335 338 339 336 336 338 338 339 337 338 336 338 339 336 339 338 339 344 341 340 341 342 342 344 342 340 342 339 338 340 340 342 345 344 344 342 342 342 343 343 341 341 342 340 338 338 336 334 334 334 334 335 335 336 336 337 339 338 336 337 337 336 338 339 339 339 340 340 339 339 340 337 340 338 333 330 332
340 342 341 341 339 339 338 337 334 335 338 337 337 335 334 333 333 335 335 335 335 337 340 340 340 338 338 338 335 339 341 340 338 338 335 338 340 340 340 342 344 344 342 339 339 340 342 341 341 340 339 338 337 333 336 335 335 334 332 333 334 337 335 335 335 335 336 336 337 337 336 338 338 338 340 340 339 339 338 338 337 336 335 330 330
341 342 340 340 339 337 337 335 335 334 335 334 336 334 333 332 333 333 334 334 333 337 338 342 341 342 342 342 343 340 341 339 338 336 341 341 342 341 341 342 343 343 341 341 341 342 342 342 340 340 337 336 336 333 336 338 332 330 330 328 329 332 333 332 334 334 334 336 336 335 335 336 336 337 339 340 338 339 339 338 337 336 335 335 335
338 339 339 339 340 339 338 335 335 334 334 334 335 335 335 332 331 333 336 335 334 335 337 341 341 342 343 343 343 339 339 339 339 342 344 342 342 342 342 343 343 343 343 343 342 340 341 340 339 336 337 336 335 337 337 337 331 326 323 320 328 329 329 331 332 332 334 335 337 336 335 333 333 336 339 337 336 335 334 334 334 334 335 336 336
338 338 340 340 340 339 339 336 335 333 333 334 334 334 336 336 337 335 335 335 339 341 339 341 342 341 345 344 343 344 343 342 343 343 343 342 342 342 343 343 343 342 341 341 341 339 339 339 339 336 334 337 337 338 337 337 330 332 331 324 320 318 325 329 332 333 334 336 336 334 335 334 334 336 335 335 333 330 328 329 330 333 334 335 335
337 337 339 338 338 338 338 336 334 333 332 333 333 335 334 335 339 338 337 338 337 340 340 342 342 341 341 343 343 344 343 343 343 342 341 341 342 341 341 341 342 343 341 339 340 339 339 339 337 337 337 331 331 332 336 340 334 329 318 321 321 322 317 323 325 328 332 331 331 331 332 333 333 333 334 331 325 326 326 327 329 333 333 334 335
336 336 337 337 337 337 337 336 335 333 334 335 335 335 334 337 338 338 339 339 340 340 340 339 341 341 341 342 341 342 342 341 342 341 340 341 341 341 340 340 340 340 341 339 339 339 338 339 339 338 337 334 331 332 333 339 334 335 328 320 318 319 320 320 325 325 329 328 328 329 331 330 331 331 329 325 324 325 325 326 330 332 333 333 334
336 337 337 337 338 338 337 337 335 334 333 335 335 334 333 336 334 334 333 334 334 335 335 335 336 338 337 341 340 340 340 340 341 342 341 340 340 340 339 338 339 339 339 339 340 339 339 338 339 339 337 338 335 331 332 335 339 334 334 338 329 321 319 322 324 317 328 331 330 330 330 331 331 329 325 322 321 322 325 327 330 332 333 333 332
335 338 338 338 339 338 336 337 336 335 336 336 336 335 333 335 335 333 333 335 334 335 339 341 340 339 341 341 339 341 341 341 342 343 343 341 341 341 340 339 337 338 339 340 339 339 338 337 338 338 337 335 336 331 329 330 336 335 336 340 335 334 329 322 321 323 319 325 328 329 328 328 328 325 320 319 321 323 324 325 328 329 331 333 331
336 337 338 338 338 337 336 337 335 335 336 336 335 335 338 337 336 337 337 336 336 335 339 340 342 341 341 341 341 341 341 341 340 340 343 342 342 341 341 339 337 338 337 338 339 339 339 338 339 338 337 337 334 330 330 330 325 326 335 334 333 333 332 330 329 323 321 318 318 324 326 326 327 325 321 319 319 322 324 322 321 322 325 326 328
337 336 336 337 338 338 336 335 334 334 336 336 336 338 337 339 339 339 339 338 338 338 338 337 337 339 340 340 338 337 338 339 339 339 340 341 340 340 340 340 339 339 337 336 338 339 340 339 339 339 337 338 339 334 333 329 328 331 330 333 333 330 330 333 330 330 321 320 318 318 318 324 325 323 320 320 319 321 320 320 318 319 323 325 326
337 337 336 338 338 337 335 334 334 335 335 335 336 337 340 339 339 339 337 337 337 337 337 336 336 337 336 336 337 336 337 337 339 338 338 337 337 341 340 339 340 339 337 337 339 340 341 341 340 340 338 337 338 338 335 336 335 334 333 331 328 329 328 329 328 326 323 324 319 318 319 319 316 317 320 317 318 318 317 319 319 317 318 320 320
336 336 336 336 337 336 334 333 334 335 335 334 336 339 340 340 340 340 339 338 338 336 335 335 336 336 334 334 335 336 337 336 336 338 339 337 338 339 341 340 340 340 337 338 340 339 340 340 341 341 339 339 337 337 337 338 337 336 332 334 333 328 326 324 326 325 325 323 321 319 320 319 316 315 317 317 317 316 316 318 317 317 318 319 318
Wind_Speed
13 16 15 16 13 13 15 16 15 14 16 16 16 18 20 19 19 19 19 18 18 18 18 17 17 18 17 16 14 15 14 13 12 11 11 12 13 15 15 15 15 15 15 17 17 17 17 16 16 16 15 14 14 13 13 13 13 12 11 16 18 15 15 15 14 15 15 16 16 16 17 18 18 16 18 18 17 15 13 15 11 12 11 12 16
16 16 15 16 14 15 17 17 16 15 15 16 17 19 19 19 19 19 18 18 17 17 17 16 16 16 17 16 15 15 14 13 12 11 10 10 12 14 14 15 15 16 17 17 18 17 16 16 16 15 15 14 13 13 12 12 11 11 12 16 16 15 15 15 14 14 15 15 16 17 18 18 19 17 16 18 18 17 16 16 14 11 11 13 16
16 16 15 17 16 16 16 16 16 16 16 17 17 18 18 19 19 19 18 17 17 16 16 15 15 16 16 16 15 15 14 13 13 12 12 11 13 14 15 15 16 17 17 18 18 17 16 16 15 15 15 14 13 13 12 12 11 10 11 13 14 13 13 14 14 13 13 14 15 17 17 19 18 17 15 15 17 15 15 14 15 15 10 13 15
16 14 15 17 16 15 16 16 16 16 17 18 18 18 18 18 18 18 17 17 15 15 15 15 15 15 15 15 15 15 15 15 14 14 13 12 12 15 15 16 17 17 17 18 18 17 16 16 16 15 14 14 13 12 12 12 12 10 10 12 13 12 12 13 11 9 6 7 14 13 9 12 14 16 16 16 16 15 14 12 14 17 18 17 17
16 15 15 16 16 15 16 16 16 17 17 18 17 17 18 18 18 17 17 16 15 15 15 15 15 15 15 15 16 15 15 15 15 14 13 12 11 14 15 16 17 17 17 17 18 17 16 16 15 14 13 13 13 13 12 12 12 11 11 12 12 12 12 12 10 8 7 1 7 6 9 11 11 14 14 15 16 16 16 15 15 16 16 17 17
15 14 15 14 14 16 16 16 17 17 17 17 17 17 17 17 17 17 17 16 15 15 15 15 16 15 15 15 15 16 15 15 16 14 14 12 10 13 15 16 17 17 18 17 17 17 15 15 15 14 13 13 13 13 12 12 11 11 10 11 11 12 12 10 8 6 4 3 12 7 8 12 10 10 17 15 15 15 14 15 15 14 13 13 16
17 14 14 14 12 15 16 16 17 17 17 17 18 17 17 17 17 17 17 17 16 16 16 16 16 15 15 15 15 15 15 15 14 14 14 13 10 12 15 17 17 17 17 18 17 17 16 15 14 13 13 13 13 13 12 12 12 10 10 10 11 11 11 10 7 4 5 2 8 8 9 10 10 9 14 12 12 13 14 14 13 12 14 14 15
14 12 13 13 12 14 15 16 17 17 17 17 17 18 18 17 17 17 16 16 16 16 16 16 16 15 15 15 15 15 14 14 14 14 14 14 13 12 14 16 16 17 16 17 16 16 15 15 14 13 13 12 11 11 11 12 11 11 10 10 11 11 10 9 7 4 6 6 6 7 6 9 11 8 14 14 12 11 11 11 11 12 14 14 12
14 15 13 13 14 18 15 17 17 18 17 17 17 19 19 17 17 17 16 16 17 17 16 16 16 16 16 15 15 14 14 14 13 13 11 14 12 10 11 13 15 16 16 14 14 14 14 13 13 12 12 10 10 10 10 11 11 11 11 10 10 10 7 7 8 8 5 7 7 7 8 8 9 9 10 11 12 13 9 10 14 14 15 14 13
15 14 13 12 14 15 15 16 17 18 17 17 17 17 17 16 16 16 16 16 16 15 16 16 16 16 16 16 16 15 14 13 14 12 8 10 13 12 10 10 13 13 13 13 13 12 12 11 12 12 11 10 9 9 9 10 10 11 11 11 10 9 7 2 7 0 8 8 9 10 11 11 10 10 11 13 13 10 13 18 16 13 11 13 14
15 13 12 13 18 14 15 16 17 18 17 17 17 16 15 15 15 14 14 14 15 15 15 16 16 15 16 15 15 15 15 13 11 10 10 10 10 10 9 9 11 11 12 11 11 11 11 10 11 10 10 9 8 7 7 8 10 10 11 11 10 7 5 5 9 7 9 10 10 9 11 12 10 9 12 13 13 12 13 14 13 12 13 14 14
15 13 13 14 18 14 14 16 17 17 18 17 16 16 15 14 15 13 14 14 13 14 13 12 13 15 16 17 16 15 15 13 11 10 10 10 10 9 9 11 11 11 12 12 11 11 10 9 9 9 8 7 6 7 7 8 10 10 10 10 9 5 3 8 3 6 8 10 10 9 11 12 12 13 16 14 14 14 14 13 13 13 15 14 13
14 14 14 16 16 14 14 15 16 16 16 17 16 15 15 14 13 12 13 13 12 11 11 12 12 11 13 16 17 15 15 15 13 12 11 10 10 9 9 9 12 12 12 11 10 10 10 9 7 6 6 5 6 6 7 9 10 10 10 9 8 5 2 10 4 7 8 9 9 10 11 11 11 12 13 13 13 13 12 12 12 12 13 11 15
14 14 14 15 14 17 14 15 16 16 16 16 15 14 14 13 12 12 12 11 12 11 11 11 10 10 10 11 11 11 13 13 14 14 14 12 10 10 10 10 11 11 11 11 10 10 9 8 7 5 5 6 6 6 8 11 11 10 9 9 8 5 7 1 9 8 8 9 10 11 11 9 11 13 12 13 14 13 13 12 13 13 12 13 14
15 16 15 14 15 16 16 15 16 16 15 15 15 14 13 13 13 13 12 12 11 10 10 10 10 11 12 12 12 11 14 14 13 15 16 14 11 10 10 10 10 10 11 11 9 9 8 8 6 5 5 6 7 8 9 11 10 9 9 8 8 6 9 2 5 8 8 7 8 11 11 10 12 14 14 13 12 12 11 13 12 12 12 12 13
16 16 15 14 14 15 15 15 15 15 15 15 14 14 13 12 12 13 12 12 11 11 11 11 11 11 11 12 14 14 14 15 15 15 15 14 13 12 11 10 10 10 10 11 10 9 8 7 6 5 6 6 8 9 11 10 10 9 8 7 5 2 6 5 6 7 6 8 9 10 10 10 12 12 11 12 13 12 12 12 13 12 12 13 13
14 15 16 16 15 14 13 14 13 14 14 14 14 13 13 12 12 12 11 11 11 11 12 12 13 13 13 13 14 13 14 16 16 16 15 14 14 13 12 11 11 10 11 10 10 9 8 7 7 7 7 7 8 10 11 11 10 9 8 6 3 4 6 6 6 6 7 7 7 8 9 9 11 12 14 13 12 12 12 12 12 12 12 12 12
15 14 15 16 15 14 12 13 14 13 13 12 12 12 13 12 11 11 11 11 11 12 12 11 11 11 10 9 11 12 13 14 15 15 15 14 14 14 13 12 11 11 11 11 10 8 8 6 7 8 9 8 9 11 11 10 10 9 7 6 5 3 5 1 7 7 7 7 9 9 9 10 12 13 12 13 13 12 12 12 12 12 12 12 12
14 14 14 15 15 14 13 13 14 13 14 11 11 10 11 12 12 11 11 11 10 11 12 11 11 11 11 10 10 12 13 13 14 14 14 14 13 14 14 13 11 11 10 10 10 9 7 6 7 8 9 8 9 11 11 11 10 9 8 6 4 3 7 2 7 8 7 7 8 8 8 10 10 11 13 12 11 12 12 11 11 11 11 11 11
13 13 13 13 13 13 12 12 12 13 11 10 11 12 11 11 11 11 10 10 10 11 12 13 14 13 13 13 13 13 13 12 14 13 14 14 12 10 14 13 13 11 11 11 10 8 7 6 6 6 8 8 9 10 11 11 10 10 8 7 6 10 3 6 7 8 8 8 8 8 10 9 10 12 11 12 11 10 11 13 12 12 12 12 12
10 13 13 12 13 13 14 11 12 13 12 12 11 11 11 11 10 10 10 9 10 11 11 13 13 12 12 11 11 10 11 11 11 11 14 11 13 13 14 14 12 12 11 11 10 8 7 6 5 3 5 7 9 10 11 10 10 9 9 8 10 5 6 5 6 6 7 8 9 9 10 9 10 11 11 11 11 10 10 10 10 11 11 12 11
12 12 12 13 12 12 13 12 11 13 12 10 9 9 10 12 12 11 11 10 10 10 10 10 11 10 10 11 8 7 7 7 5 11 9 13 13 14 14 14 13 12 11 10 9 8 7 7 6 5 4 7 13 8 9 10 10 9 8 9 9 6 5 5 7 7 8 8 8 9 9 11 12 10 10 11 10 11 10 9 9 10 10 11 11
12 11 11 13 11 11 11 11 12 12 13 11 9 9 12 10 11 11 10 11 11 9 10 8 9 9 10 9 7 6 6 9 7 7 9 10 12 13 13 13 13 13 11 10 7 5 5 6 5 5 3 3 7 7 7 8 7 9 7 7 4 5 6 5 5 7 7 8 8 9 9 10 11 11 11 10 10 11 11 11 10 10 10 10 10
13 12 11 11 11 10 11 10 12 12 11 8 9 9 10 9 9 10 9 9 9 9 5 9 9 10 8 6 6 6 6 3 9 10 11 9 12 13 13 13 13 11 12 9 8 5 4 5 5 6 4 5 5 5 7 7 7 7 5 4 5 6 5 4 5 7 7 8 9 9 8 8 10 10 11 10 10 10 9 10 10 9 10 10 10
11 11 10 11 12 11 10 10 10 11 10 8 9 9 9 8 8 9 9 8 7 3 6 8 7 9 7 5 7 8 9 7 7 6 4 8 9 9 9 7 7 7 8 6 6 6 7 7 5 5 5 5 5 6 5 6 6 5 4 5 6 5 5 5 6 5 7 7 8 5 7 9 9 9 10 10 9 9 9 10 9 9 9 9 9
10 10 10 11 12 11 11 9 10 10 9 8 8 8 8 8 8 8 8 9 7 7 6 6 3 7 6 6 6 5 6 9 8 11 9 7 8 7 7 6 6 6 5 4 5 7 6 6 7 7 5 5 4 5 5 5 6 5 5 5 5 5 5 5 6 5 6 7 7 8 10 8 6 9 11 10 9 9 9 9 9 9 9 9 8
10 9 9 9 10 10 10 10 9 9 10 8 6 7 7 7 7 8 8 7 8 6 9 5 6 7 5 5 4 5 5 7 8 7 7 6 6 6 6 5 6 6 5 5 6 6 6 6 6 5 4 5 5 5 5 6 5 6 6 6 5 5 5 5 5 6 6 7 9 8 9 8 7 8 10 10 10 10 9 9 9 8 8 8 8
10 10 10 10 10 10 11 10 10 10 9 8 9 8 7 7 6 5 7 5 4 6 2 5 7 5 7 5 9 6 3 7 7 6 6 5 6 6 5 5 4 4 5 5 6 6 5 5 6 6 7 6 6 6 6 6 6 5 6 6 5 5 4 5 5 5 5 6 8 9 8 8 8 8 8 9 9 9 8 8 8 8 8 8 8
10 10 9 10 10 10 11 11 10 11 9 8 9 8 7 6 6 7 6 6 4 2 5 3 2 7 10 12 7 6 6 6 6 6 6 5 6 6 5 4 4 4 5 4 4 4 4 5 6 7 6 5 5 6 6 6 5 5 5 6 5 6 6 5 5 6 6 6 6 10 10 9 6 7 8 7 8 8 8 8 8 8 9 8 8
10 10 9 9 10 11 12 12 11 10 9 8 8 7 7 6 6 6 5 4 2 1 1 2 3 5 2 5 1 5 6 6 6 6 6 6 6 5 4 4 4 4 3 4 3 4 4 5 6 6 6 6 6 6 6 7 6 5 5 5 5 5 5 5 4 5 6 6 7 9 11 7 4 3 5 6 7 8 8 8 9 9 9 8 8
10 11 9 9 10 11 11 11 10 9 9 9 7 6 6 5 6 5 5 5 4 4 3 2 2 4 2 8 6 6 6 6 5 5 6 6 6 5 5 4 4 4 4 4 3 3 4 5 5 5 6 6 5 6 6 6 6 6 5 5 5 5 5 4 4 4 5 6 7 7 9 7 7 10 10 7 7 7 8 9 9 8 7 7 6
10 11 9 8 9 11 11 11 10 9 9 10 8 7 7 7 6 7 5 5 6 3 4 2 4 2 5 8 3 5 5 5 4 4 6 6 6 6 6 5 3 3 3 4 3 3 3 3 3 3 3 4 5 5 5 6 6 6 6 5 5 5 5 5 4 4 4 6 6 6 6 8 11 11 12 10 7 7 7 9 9 8 7 6 5
8 9 9 8 9 10 9 10 9 9 9 10 7 6 5 6 7 6 6 6 5 4 3 1 2 3 3 5 4 5 5 4 4 4 5 5 5 6 5 5 5 3 2 3 4 3 3 4 4 4 4 5 5 5 5 5 4 5 5 5 4 5 4 4 4 4 5 5 5 5 6 6 8 13 12 9 8 7 6 6 5 5 5 4 3
8 8 9 8 6 7 6 7 9 9 10 6 6 6 6 5 4 6 7 7 5 4 3 2 2 4 6 3 5 7 8 6 5 5 4 5 5 6 5 5 4 4 4 4 4 3 3 4 5 5 5 5 6 6 6 6 5 5 5 4 4 4 3 4 4 4 4 4 4 4 4 5 5 5 6 9 7 6 6 5 4 4 4 4 3
6 7 9 8 8 8 6 8 8 10 9 8 7 6 6 6 7 8 8 8 6 5 4 2 3 3 3 5 5 6 6 6 6 5 5 5 5 5 6 5 4 5 4 3 2 3 4 4 4 5 5 5 6 6 6 5 5 5 5 4 5 4 4 4 4 5 5 4 3 4 3 2 5 3 3 4 7 7 5 5 4 4 3 2 2
9 9 9 8 9 9 9 10 10 10 10 9 6 6 7 5 5 6 6 7 6 5 4 3 4 3 6 5 7 7 7 7 6 6 3 1 5 5 5 4 5 4 3 3 4 4 4 4 4 4 6 5 6 6 4 5 5 5 4 4 4 4 4 5 4 4 4 3 4 2 3 3 4 6 5 1 3 5 6 6 6 5 5 4 3
10 9 9 9 8 8 9 11 11 9 9 6 4 4 5 7 7 7 6 6 6 6 6 4 5 7 8 7 7 7 7 7 7 5 6 7 4 5 5 5 4 3 4 3 4 4 4 4 4 5 4 6 7 7 6 5 5 6 5 6 5 4 4 4 5 5 4 4 4 4 4 5 4 2 4 7 5 3 7 8 7 8 10 10 8
10 9 10 10 11 9 9 10 10 10 10 9 6 6 6 5 5 5 6 6 6 7 5 3 4 6 7 6 6 7 6 7 8 6 4 4 4 5 5 5 4 3 3 4 4 4 5 4 5 4 4 5 6 7 7 6 6 7 6 6 6 5 5 5 6 5 5 5 4 4 4 3 2 3 3 2 3 3 7 5 8 10 11 10 10
8 11 10 10 9 10 10 9 9 9 11 11 10 7 7 6 5 4 6 5 3 5 9 10 9 6 6 3 6 5 5 6 6 6 3 5 5 5 5 5 4 4 4 4 5 4 4 4 5 5 4 4 6 6 6 7 7 6 7 7 7 7 6 5 5 5 5 5 5 4 3 3 2 3 3 2 2 1 3 5 4 3 7 9 9
8 9 10 10 9 9 8 10 9 8 9 10 8 7 6 5 5 5 5 4 4 7 6 6 6 5 7 9 8 4 6 5 3 5 7 7 5 5 5 5 4 3 4 5 5 4 5 6 6 6 6 5 7 4 4 7 7 8 7 6 6 4 5 3 5 5 4 4 5 4 4 3 2 3 2 2 2 3 2 2 1 3 5 8 5
10 10 11 11 10 9 9 11 9 9 5 7 7 9 8 6 6 8 9 7 9 6 6 3 4 4 4 5 6 7 5 5 4 5 7 5 5 5 5 5 4 4 4 4 5 5 5 5 5 6 7 7 7 9 8 8 9 6 6 4 7 4 2 1 5 5 4 4 3 4 4 3 2 3 2 3 4 3 2 2 3 3 3 3 6
9 9 11 10 10 10 10 10 10 10 8 8 8 7 8 8 8 8 5 9 8 7 6 5 4 4 4 4 4 6 6 6 7 7 5 5 5 5 5 5 4 4 3 4 5 5 6 5 6 6 6 7 7 8 8 9 8 9 9 7 6 6 6 3 4 6 6 5 4 5 4 3 3 2 2 3 4 5 4 4 4 4 3 3 4
10 10 10 11 10 10 9 10 9 10 9 8 9 8 4 3 6 6 6 6 7 6 6 6 6 6 4 4 4 4 6 6 6 5 4 5 5 4 5 4 4 4 4 4 5 6 6 7 7 6 7 7 7 8 9 5 7 7 7 8 7 6 1 5 4 4 5 5 5 6 5 5 5 4 4 3 4 5 5 5 4 4 3 4 5
9 10 10 11 9 9 8 9 9 10 12 11 8 5 6 8 5 5 6 5 6 6 5 5 5 6 6 4 5 5 5 5 6 6 5 5 5 5 5 4 4 4 4 5 6 6 6 6 7 7 7 8 7 8 7 5 7 10 7 3 6 4 8 6 6 5 5 6 5 6 5 5 5 5 4 4 5 4 4 4 5 5 4 5 5
10 11 10 10 7 9 9 10 10 12 12 12 10 7 7 7 5 5 6 5 5 6 5 5 5 5 5 5 5 5 5 4 4 5 5 5 6 6 5 5 5 5 4 5 5 6 7 7 7 7 8 7 8 8 10 6 7 1 6 5 2 4 4 8 8 6 4 5 6 6 5 5 5 4 4 5 5 4 4 5 4 5 5 4 5
10 10 10 10 10 11 11 11 10 11 12 13 12 10 9 8 8 8 8 8 7 7 7 7 6 6 6 4 5 5 5 5 5 5 5 5 5 5 6 6 6 5 4 4 5 6 7 7 7 7 8 7 7 7 7 6 6 5 3 4 2 3 8 10 8 7 4 5 6 6 6 6 5 4 4 4 5 5 4 5 4 5 4 4 5
11 9 9 11 11 11 12 12 11 10 11 12 13 10 10 9 10 10 10 8 7 6 5 6 6 5 4 5 5 4 4 5 4 5 5 5 6 5 6 6 6 6 5 4 5 6 6 7 7 7 6 8 7 4 6 8 3 3 5 1 5 6 8 11 7 9 9 5 5 5 6 6 5 5 5 5 6 5 4 5 5 5 5 5 6
11 10 10 11 12 13 12 10 9 10 9 10 12 11 8 9 9 9 8 8 7 7 7 6 5 5 5 6 5 5 5 5 5 6 6 6 6 6 6 6 6 6 6 6 5 6 6 5 5 6 4 3 9 9 8 5 7 6 5 4 3 6 9 8 6 8 8 9 8 6 5 5 5 4 4 5 6 5 4 3 5 5 4 5 5
11 12 11 10 11 12 13 11 10 10 9 12 12 10 9 9 8 7 7 6 6 6 6 6 5 5 7 6 6 5 5 5 5 5 6 6 7 7 7 6 6 6 6 6 6 6 6 6 6 5 5 4 3 5 6 9 9 7 7 4 4 6 9 6 8 7 7 8 8 9 8 6 5 5 4 4 5 4 4 4 5 6 6 5 5
9 11 10 10 11 11 12 12 12 9 9 10 9 10 9 8 8 7 7 6 6 7 7 7 7 7 7 6 6 6 6 6 5 5 4 6 6 6 6 6 6 6 6 5 5 5 5 5 6 5 5 6 4 5 6 5 7 4 4 3 6 6 7 5 6 6 6 7 9 9 9 9 7 5 4 4 5 5 5 4 4 5 5 5 5
8 10 10 10 10 11 12 11 10 8 9 10 11 11 10 9 8 8 8 8 9 8 8 8 7 7 7 6 6 6 5 6 6 5 5 5 6 7 6 6 6 5 5 6 6 6 5 5 5 5 6 5 4 6 4 6 5 4 4 3 2 2 4 6 6 6 6 7 7 9 9 8 8 7 4 4 4 5 5 4 4 5 4 5 5
Wind_Direction
146 138 135 128 134 130 124 124 118 113 113 108 103 114 125 124 126 128 130 132 136 136 134 135 140 141 141 138 134 131 131 136 134 132 133 133 133 129 128 125 124 123 123 120 120 118 115 110 105 97 96 97 97 95 89 82 75 85 81 81 74 80 80 85 90 92 89 85 85 87 82 81 82 74 77 77 73 67 70 75 74 79 78 78 76
144 137 134 137 130 131 130 125 117 113 111 111 107 118 121 123 125 126 128 132 135 134 133 135 137 138 140 139 136 135 136 139 135 132 129 133 133 132 130 127 125 125 126 128 122 118 113 111 110 108 101 99 98 95 90 89 86 82 83 65 69 71 79 84 83 88 91 88 88 85 85 86 78 72 67 70 67 66 64 61 68 74 70 64 74
132 136 136 136 133 130 125 121 118 114 115 110 112 117 119 123 126 128 131 133 134 134 133 134 136 138 140 142 140 139 140 141 137 134 135 140 138 134 133 130 127 127 133 125 124 120 120 117 115 109 107 102 99 97 96 92 88 83 79 74 66 68 73 81 91 90 91 100 101 94 90 83 89 91 85 74 71 66 67 70 71 80 87 81 72
131 135 135 134 133 130 127 124 120 118 119 117 118 121 123 125 127 128 129 131 133 133 133 133 135 138 142 142 141 141 142 141 138 138 138 143 140 139 136 130 127 134 131 127 125 127 121 118 114 113 113 107 102 99 98 97 91 88 85 80 70 65 70 73 75 83 96 127 136 123 102 95 76 64 69 72 79 77 77 75 75 73 75 70 68
132 134 136 143 141 132 127 124 123 121 120 119 117 123 126 127 128 130 130 129 131 132 133 135 137 140 143 143 143 143 143 142 140 141 142 143 146 140 134 130 137 137 131 130 129 129 125 121 120 117 114 111 108 105 103 101 95 89 84 79 72 68 70 70 64 56 49 87 215 181 104 87 77 72 73 70 69 64 66 67 66 68 68 66 64
135 132 140 143 140 134 129 128 127 123 121 120 119 123 127 127 130 131 131 131 133 135 137 139 140 142 143 144 143 145 146 146 148 147 142 142 148 135 136 139 138 136 132 133 134 133 130 126 124 121 118 112 110 109 109 104 98 90 83 78 74 73 70 70 66 58 29 298 231 117 108 104 89 89 71 75 67 58 56 55 53 59 66 74 77
135 136 139 139 138 135 131 130 129 126 124 123 122 123 126 128 131 132 135 136 139 143 141 141 141 142 143 146 147 146 145 145 142 137 132 132 136 141 144 141 138 136 139 138 139 138 135 135 131 129 122 119 112 105 107 108 104 97 89 83 76 74 72 67 71 50 312 292 77 78 85 88 93 85 67 70 70 66 58 52 49 49 59 58 56
136 137 138 138 136 137 135 132 130 127 127 125 125 129 130 130 133 136 138 140 141 144 143 143 143 145 147 147 147 145 145 142 140 138 139 143 145 151 144 143 141 143 143 141 140 139 138 137 136 132 131 128 115 104 103 106 108 107 101 93 81 74 72 73 78 48 290 89 99 90 103 104 93 93 68 65 70 74 75 78 62 57 52 51 58
140 141 138 134 134 140 138 133 131 131 129 130 132 134 134 133 137 139 140 141 144 146 145 146 150 152 150 148 148 147 145 142 143 147 148 147 146 145 144 142 140 143 144 141 138 139 135 136 134 132 134 131 122 116 112 110 111 111 109 102 92 81 74 94 111 186 118 86 86 84 83 87 95 86 80 73 60 53 78 105 108 79 57 57 66
139 141 136 135 139 140 141 136 133 132 135 135 136 135 135 136 138 138 141 142 144 146 149 152 155 155 152 151 152 148 143 143 146 143 121 137 147 142 148 143 135 140 140 137 138 136 134 135 134 136 132 132 129 120 116 113 116 116 111 106 99 96 91 210 219 199 84 81 72 61 44 53 81 79 72 67 58 51 65 58 51 53 67 76 69
141 139 139 133 140 142 141 137 134 134 135 135 137 137 136 136 137 139 138 143 145 149 151 155 156 154 150 150 149 148 144 141 142 132 116 113 122 132 142 119 126 135 133 128 136 133 131 132 137 132 133 127 117 124 127 128 124 120 117 112 109 119 186 184 247 81 88 99 99 100 91 80 77 80 80 81 89 79 64 68 72 75 75 72 68
142 139 137 136 136 144 141 136 135 135 138 138 137 139 137 137 137 136 138 143 148 152 153 153 153 152 153 151 152 152 143 141 141 131 122 111 102 94 93 123 127 125 128 133 132 128 131 128 126 132 134 136 136 135 140 139 131 124 121 119 115 122 233 249 232 99 90 83 84 85 88 89 90 85 77 74 76 74 71 72 74 72 68 66 71
137 136 134 138 146 141 140 136 136 137 140 141 140 140 140 137 136 137 141 143 150 153 150 149 148 152 153 155 155 152 147 148 145 136 129 124 112 101 94 107 118 123 126 128 126 131 125 115 120 124 138 139 133 137 138 142 134 127 124 120 121 130 270 283 105 89 88 86 87 87 90 88 86 89 86 80 78 74 73 74 73 73 72 74 70
138 136 140 144 143 144 139 137 139 141 142 144 143 141 140 138 135 133 138 145 150 150 146 143 145 146 145 148 149 152 149 146 146 138 138 131 120 110 102 100 118 124 123 127 129 130 120 120 135 138 133 124 122 124 135 138 132 129 125 123 125 146 222 214 88 90 86 81 83 89 84 79 81 79 87 87 80 77 77 79 77 77 83 73 67
137 142 144 143 143 147 142 142 142 144 144 143 143 143 141 139 135 138 141 144 143 134 134 141 142 142 146 146 147 152 145 148 148 139 137 136 126 118 112 107 109 125 128 128 129 132 130 135 126 118 114 116 116 117 124 129 130 126 126 126 140 193 250 90 97 93 94 102 97 89 85 88 88 85 81 80 81 87 84 76 76 77 77 77 72
141 141 143 144 145 145 150 149 148 145 145 143 142 142 139 135 136 142 147 146 142 135 136 135 135 138 148 154 150 150 136 141 140 137 134 133 134 128 122 124 128 131 136 134 139 134 130 120 116 117 115 115 119 120 120 128 126 124 124 125 138 257 299 331 95 94 89 83 81 83 85 81 72 90 92 87 85 82 82 83 79 76 76 74 74
143 145 146 146 147 151 152 156 151 146 143 142 141 141 134 133 139 142 146 145 143 140 138 141 145 148 149 155 141 131 134 142 143 139 136 134 134 130 132 134 138 140 140 138 136 134 124 123 126 120 121 122 121 123 125 124 124 120 116 116 87 13 339 323 94 85 75 76 87 86 89 89 96 92 82 83 88 92 90 90 89 85 79 77 77
151 150 148 151 154 154 153 155 153 152 145 142 139 138 136 135 139 144 145 147 143 143 142 140 139 133 136 129 125 132 138 142 140 138 137 136 134 132 135 137 139 141 139 136 131 129 124 129 122 116 121 132 127 127 124 121 117 114 117 104 87 17 307 360 88 91 90 83 81 82 84 86 83 85 91 86 86 91 89 84 83 86 84 82 78
157 155 153 156 156 155 157 154 162 156 153 155 155 141 136 140 144 146 148 145 144 144 144 141 135 137 137 137 134 132 138 142 139 135 134 136 135 135 135 137 135 135 131 128 128 127 135 127 113 111 121 131 129 126 123 114 116 121 113 112 118 195 254 218 97 101 105 95 84 87 89 76 94 94 86 88 87 79 81 84 89 90 88 85 78
160 161 159 160 157 160 160 160 163 158 156 153 153 154 145 146 149 149 145 148 148 147 149 148 148 146 147 148 147 150 148 148 148 139 136 129 125 134 128 129 131 132 128 127 127 130 138 118 108 107 114 126 131 127 118 118 122 120 130 126 183 216 195 69 73 79 77 75 85 93 96 107 95 91 95 92 88 96 86 88 94 89 87 84 80
165 169 164 163 161 162 164 164 164 159 155 150 152 155 150 148 149 141 146 148 148 150 147 154 155 154 156 151 158 159 153 150 151 138 135 126 120 127 125 125 125 129 127 125 126 133 127 124 110 84 113 123 131 124 118 121 123 132 129 175 200 216 78 99 93 99 99 99 94 96 105 99 96 100 103 105 105 93 96 96 88 89 89 87 86
172 173 174 168 167 168 168 165 163 164 160 153 152 154 153 164 163 161 164 159 155 151 160 167 170 162 165 157 165 157 151 119 124 138 131 127 133 128 124 121 123 126 125 130 129 129 122 117 111 97 111 133 144 149 137 125 129 135 160 190 219 88 101 96 96 93 92 90 94 110 125 113 107 107 104 106 107 106 101 98 95 94 95 91 87
174 176 174 176 172 170 166 168 163 165 160 152 152 154 159 170 164 167 163 169 158 160 164 170 170 163 169 158 151 156 125 134 183 143 122 131 124 122 117 120 122 121 127 126 122 114 116 111 105 108 104 227 188 155 156 153 144 146 180 215 93 97 93 100 105 89 84 90 94 119 117 109 114 115 111 111 107 106 103 101 99 94 95 95 94
176 180 174 180 178 171 169 167 168 165 162 155 156 158 165 170 170 165 164 163 162 167 186 196 169 171 149 151 151 131 128 162 107 113 126 131 123 119 117 118 119 122 126 134 126 125 121 112 114 139 177 194 159 161 164 153 149 166 165 134 109 115 126 112 90 92 98 101 100 120 118 108 106 116 120 116 113 114 110 106 100 100 97 98 99
178 177 177 179 182 174 168 168 168 166 164 158 159 162 163 176 168 168 169 158 170 202 174 209 173 160 134 137 158 158 153 136 139 137 175 147 141 139 138 136 140 134 159 147 157 157 190 160 158 198 179 189 177 164 161 152 155 153 138 120 119 119 102 93 91 93 97 103 100 120 109 108 114 121 122 119 115 112 110 108 108 106 102 101 97
178 180 180 177 181 179 173 169 166 168 166 164 169 157 172 174 171 172 172 164 160 194 177 203 246 151 161 156 157 170 143 137 165 168 172 137 144 147 136 136 138 136 158 149 162 181 192 175 177 178 176 197 175 162 162 157 158 152 142 120 120 131 116 107 106 111 104 108 113 100 109 110 117 128 121 118 115 114 113 112 110 109 106 103 101
180 185 176 176 178 173 167 165 161 169 171 170 168 166 183 174 171 173 177 180 168 186 173 193 188 88 94 152 172 163 174 150 150 131 130 141 135 139 129 131 142 143 154 161 173 184 193 186 178 172 178 202 179 163 169 160 159 151 140 135 126 120 120 113 116 111 118 112 110 122 118 125 127 132 123 120 119 119 117 115 113 110 108 105 102
183 182 180 177 172 170 166 173 172 171 173 173 180 178 180 176 168 154 205 143 173 176 144 192 150 145 163 179 179 174 188 139 135 134 134 138 131 118 121 131 130 138 156 171 171 180 181 171 156 172 189 192 170 178 165 156 157 152 136 125 127 115 105 105 106 114 117 117 122 117 108 109 125 133 120 117 116 114 118 118 121 117 112 105 100
188 181 178 174 168 168 169 172 168 173 169 176 184 184 174 178 166 172 183 127 178 203 173 169 186 160 172 169 157 144 166 145 139 139 132 120 119 121 129 126 129 157 167 168 160 150 159 165 165 181 192 175 169 174 164 154 157 149 133 131 128 116 112 113 120 120 111 109 114 108 108 109 115 117 120 118 109 112 122 118 113 112 108 110 107
185 179 174 177 169 169 171 173 171 173 170 181 188 185 178 176 168 169 118 123 137 206 8 122 160 139 145 30 68 129 132 130 137 134 125 123 123 123 129 141 150 163 158 151 147 158 156 163 181 185 172 179 171 162 163 155 152 145 135 126 119 113 113 113 117 110 111 115 109 110 112 108 92 338 53 117 111 113 121 120 117 115 117 117 116
189 187 183 183 171 172 172 165 164 164 173 188 183 183 168 169 163 128 130 152 146 88 109 90 122 105 182 141 239 149 139 129 132 129 127 131 132 139 144 151 159 158 150 138 146 166 174 166 179 181 170 178 160 153 167 156 156 148 139 137 120 119 116 110 106 106 109 113 113 118 110 97 80 64 48 69 110 117 119 121 123 124 128 123 111
194 192 192 183 176 175 159 157 162 165 179 189 183 184 171 170 154 156 156 127 105 150 138 124 148 148 171 148 169 66 77 96 106 126 133 139 150 151 151 156 150 165 155 138 152 168 171 147 149 166 169 149 149 158 151 158 168 145 146 117 121 126 117 114 112 105 110 108 115 117 115 110 91 79 70 67 84 89 116 131 129 135 130 124 114
195 195 195 182 181 166 156 154 151 166 187 181 170 172 164 158 166 149 132 131 141 129 132 174 88 185 122 103 117 105 91 95 122 135 144 152 149 147 151 158 155 158 150 149 149 162 154 149 150 160 163 158 158 145 158 150 168 136 126 126 126 114 115 116 115 122 120 130 121 126 124 118 113 92 81 79 78 83 96 97 103 101 105 116 102
196 193 196 180 174 156 154 135 141 166 179 161 151 148 151 143 159 148 143 143 136 141 170 141 209 162 150 152 133 129 128 130 132 140 153 148 155 156 157 157 151 166 169 170 169 152 148 156 154 166 150 162 156 154 160 164 148 138 123 120 110 103 116 116 108 99 103 94 89 118 118 138 94 100 109 99 88 88 89 101 117 118 123 118 94
193 202 191 180 175 163 151 153 149 161 169 158 157 156 132 155 172 163 156 154 150 156 144 160 195 198 116 152 137 135 134 135 138 145 154 164 169 162 160 150 165 181 185 167 156 156 167 169 173 154 158 158 156 160 167 146 129 123 130 132 117 119 112 111 127 140 121 98 105 88 101 111 96 69 58 90 111 78 59 63 58 53 58 54 67
188 195 184 172 167 179 170 153 156 169 188 170 160 154 152 163 162 158 154 152 150 157 150 183 183 221 174 151 138 134 148 154 146 133 121 12 205 164 151 158 178 194 181 160 170 175 157 174 163 159 164 159 153 157 146 132 143 136 126 123 118 118 129 129 133 118 103 141 113 126 108 90 129 133 140 224 67 86 63 68 60 51 40 47 50
185 191 192 179 153 154 163 156 161 155 160 130 131 151 126 159 174 165 151 157 164 172 182 169 179 192 184 172 142 140 153 161 152 156 136 193 197 160 150 161 182 189 176 175 182 172 161 168 165 167 178 157 154 148 143 143 135 134 140 132 126 126 120 132 135 123 138 134 140 138 120 102 97 150 147 140 144 148 87 82 81 65 47 40 44
171 178 185 199 178 158 159 145 146 162 157 137 153 178 163 176 169 167 160 180 185 170 158 189 177 219 163 148 145 143 159 163 155 146 159 196 176 158 157 161 177 180 180 178 183 170 164 170 157 164 164 169 148 152 149 147 147 149 142 132 132 127 144 157 131 149 157 139 129 109 97 99 99 81 85 48 103 137 126 125 119 91 59 44 37
178 177 178 189 200 165 142 119 127 160 160 139 175 180 176 167 166 181 176 182 223 190 173 185 181 204 135 133 134 143 154 159 147 128 132 198 175 161 153 165 182 174 175 188 171 170 156 167 162 153 155 169 153 137 152 153 156 143 140 139 145 148 150 137 145 148 133 133 111 114 136 121 111 92 74 90 102 83 96 144 205 125 88 56 51
191 186 177 174 175 179 163 131 143 167 158 144 154 175 186 154 172 181 179 178 228 214 189 155 151 197 162 166 153 185 147 147 141 117 185 204 160 159 152 172 185 178 184 188 174 164 167 161 165 152 152 140 125 141 184 157 141 134 138 135 95 96 108 131 144 125 114 116 130 139 115 115 113 92 94 100 132 86 80 81 21 85 108 106 88
191 188 181 170 169 165 171 143 140 147 127 154 166 175 168 175 210 195 189 171 206 181 183 153 168 146 160 150 145 148 154 152 138 188 195 160 159 151 159 176 184 189 182 182 177 157 163 167 154 160 157 155 148 167 173 150 137 121 97 76 128 136 112 153 116 120 123 132 140 117 110 119 123 123 123 144 121 118 107 92 83 64 66 105 135
188 182 182 179 172 166 175 147 142 137 137 177 180 188 187 190 184 194 190 177 174 180 175 159 170 147 157 143 142 150 173 175 189 188 164 168 150 158 166 172 189 181 176 166 166 157 156 165 165 163 173 161 161 159 148 155 154 147 142 145 80 104 118 190 192 137 153 144 126 123 123 121 131 125 142 129 127 117 88 72 55 46 36 53 60
178 181 179 176 172 178 180 157 143 137 143 182 183 189 199 251 205 159 210 181 170 177 170 164 166 155 151 150 158 173 170 172 174 168 168 166 161 169 172 170 193 171 169 165 166 163 172 171 179 171 170 167 161 159 159 177 147 139 119 128 135 130 28 135 103 117 115 122 132 124 133 149 139 138 129 117 85 69 73 70 64 58 59 66 70
188 188 176 176 180 183 172 146 146 133 158 167 179 172 194 209 202 168 188 182 165 164 157 152 168 158 157 160 163 179 175 175 172 172 181 168 169 179 171 181 186 178 178 177 172 174 172 178 183 177 174 167 168 161 187 183 161 152 147 170 142 139 142 147 137 120 115 115 122 123 132 132 131 116 109 111 80 73 77 81 79 72 77 77 80
191 189 181 181 170 170 160 153 150 151 163 162 182 198 189 182 170 167 180 165 152 161 163 161 171 171 160 173 167 174 173 172 184 193 187 166 176 178 179 182 186 186 191 190 181 176 178 186 180 180 181 176 173 163 187 178 144 251 123 132 108 171 147 144 132 107 117 116 110 113 110 118 112 119 117 94 105 88 79 77 74 85 89 86 86
191 190 181 179 169 161 158 159 153 158 164 169 169 185 179 180 168 170 176 175 171 172 177 170 176 178 179 161 166 173 179 177 188 192 171 169 166 174 189 185 181 184 195 197 191 179 188 191 181 184 192 189 178 164 170 184 168 170 180 235 102 176 163 151 141 130 117 111 113 106 114 112 119 107 93 87 79 89 103 111 107 102 89 78 79
189 178 177 178 168 152 153 156 156 158 162 168 174 191 178 184 178 179 177 177 174 171 169 168 173 165 153 167 162 170 177 172 179 176 172 175 170 174 181 190 176 186 187 206 199 191 191 197 177 193 188 193 117 147 185 178 169 233 190 173 141 183 178 162 158 138 142 126 115 113 116 119 106 94 94 96 103 95 81 82 84 83 89 83 77
181 170 179 179 169 153 151 154 154 162 163 163 177 187 179 178 184 184 180 182 173 162 160 157 152 149 157 163 162 167 172 179 184 182 175 173 171 166 177 181 181 186 187 201 197 194 197 194 173 200 182 208 161 175 184 160 173 212 213 179 181 166 168 209 146 171 144 149 141 113 104 108 105 85 76 87 94 94 88 103 111 108 96 92 96
174 176 174 176 171 157 152 148 150 155 156 161 177 186 188 182 182 186 178 173 161 154 147 146 155 160 157 161 172 167 172 179 189 185 178 177 170 167 173 172 186 177 195 196 196 192 197 180 172 182 186 178 117 175 166 186 199 185 185 183 174 173 169 193 149 202 161 145 141 140 137 132 125 102 91 92 91 91 92 81 81 93 100 100 98
173 170 172 169 168 161 153 153 154 156 157 162 178 182 186 179 185 185 174 163 161 155 160 158 161 166 165 166 168 173 172 172 180 183 178 179 167 159 172 174 176 175 195 187 185 188 187 178 174 180 181 185 148 169 193 196 207 190 186 220 186 169 174 166 181 184 147 150 151 152 150 154 142 116 114 119 116 112 118 119 124 103 101 105 103
176 171 171 175 163 154 158 172 163 154 157 164 174 177 181 184 184 176 176 164 162 162 160 163 158 162 161 164 176 170 169 165 166 165 174 170 165 166 166 172 174 173 196 177 192 187 175 175 168 167 183 191 172 178 197 219 219 195 199 222 322 195 120 205 175 187 157 143 143 147 155 157 131 132 123 105 129 134 119 114 113 111 110 105 100